Theta_e
336 336 337 343 346 349 349 349 349 349 349 348 348 348 348 347 347 346 345 343 343 343 343 342 341 341 340 341 341 341 340 341 343 343 343 344 345 345 344 343 342 343 343 343 343 343 342 343 342 342 341 341 341 341 341 340 341 342 342 342 341 342 343 343 341 341 342 340 341 343 344 344 343 343 343 343 342 342 340 341 340 336 336 338 341
334 335 337 338 347 349 349 349 349 349 349 349 349 348 348 346 345 343 343 344 343 341 340 340 340 340 341 341 340 340 341 343 342 343 342 342 343 342 342 341 341 343 342 341 342 341 341 342 343 343 342 341 340 340 340 340 339 340 341 341 341 341 342 342 342 341 341 341 341 341 340 340 341 342 342 341 342 342 341 340 340 336 336 340 341
336 335 337 340 349 349 349 348 349 349 349 349 349 348 347 346 345 345 345 344 343 342 342 340 340 339 338 338 338 340 341 341 343 343 343 343 341 339 338 339 339 341 341 340 340 340 339 341 340 338 337 337 339 339 338 338 338 339 340 340 340 341 341 340 340 340 340 340 340 339 341 340 339 340 344 344 343 344 343 342 341 341 339 343 342
335 336 338 341 347 348 349 348 348 348 349 348 348 348 346 346 346 345 344 344 343 342 341 341 338 339 337 337 339 347 348 348 347 346 345 342 340 338 337 338 340 339 339 340 339 340 340 341 339 338 337 337 338 338 337 337 339 339 340 341 341 340 340 339 339 338 338 338 337 336 333 330 334 341 343 344 345 345 342 341 342 342 343 342 342
336 337 338 339 342 346 348 348 349 349 349 349 348 348 347 346 344 345 344 344 342 341 341 340 339 338 338 339 343 343 346 346 346 346 344 342 340 337 336 338 338 338 339 339 339 340 341 341 339 338 338 336 336 336 337 337 338 338 340 340 340 340 340 339 339 338 338 337 336 332 327 328 334 341 343 343 344 342 341 341 341 342 341 341 342
336 338 340 340 341 344 348 349 350 349 349 348 348 347 347 346 346 345 344 344 343 342 342 341 341 340 340 341 342 341 345 345 345 345 345 342 339 338 337 337 338 337 338 339 339 340 340 341 341 340 339 337 337 338 337 337 338 339 339 340 340 340 340 340 339 338 337 336 335 331 331 333 335 337 342 342 343 340 340 341 340 340 341 342 341
339 342 343 341 341 345 347 349 349 349 349 348 348 347 347 346 345 345 344 343 343 342 341 341 341 341 341 340 342 343 344 345 345 345 344 341 339 337 337 336 336 337 338 339 339 341 341 341 340 340 339 338 338 338 338 337 338 338 339 340 340 340 340 339 338 337 335 331 329 331 332 333 334 336 342 341 341 341 340 341 340 343 342 341 341
342 343 343 343 344 346 346 349 349 349 349 348 348 347 347 346 345 344 345 344 343 343 342 340 338 337 337 336 341 343 346 345 345 345 343 340 337 336 336 336 338 338 338 338 339 341 340 340 340 340 340 339 339 339 339 339 339 340 340 340 340 339 339 338 337 336 335 329 329 330 331 332 333 335 340 341 341 340 339 341 340 339 341 340 336
341 343 343 343 342 344 346 347 349 349 349 349 348 347 347 346 346 344 344 343 342 342 342 341 340 340 340 339 340 341 345 345 345 344 342 340 337 337 336 335 335 337 337 338 338 339 338 339 340 340 340 339 338 338 338 338 339 340 339 340 339 338 337 336 335 333 331 329 330 330 330 331 332 333 341 341 340 341 340 338 338 340 339 336 336
341 344 344 342 338 342 345 346 349 349 349 349 347 347 347 346 345 345 344 344 343 342 341 341 341 340 340 340 343 344 344 344 344 343 340 338 336 334 334 334 336 335 336 336 337 338 339 339 339 340 340 340 338 338 338 338 338 339 339 339 339 338 336 335 333 331 328 329 331 332 334 336 333 334 338 340 340 339 337 334 335 335 334 335 336
342 343 343 341 339 342 346 348 349 348 349 348 347 347 347 346 346 345 345 343 343 343 342 341 342 341 340 340 340 341 342 343 343 342 341 339 336 334 334 334 337 337 336 336 338 337 338 339 339 339 339 339 338 338 338 338 338 338 338 338 337 336 335 333 330 327 327 328 328 330 334 336 332 333 339 339 339 338 335 334 334 335 334 335 335
341 343 343 339 343 341 346 347 348 349 348 348 348 347 347 346 345 345 345 344 343 343 343 342 341 341 340 339 341 340 341 342 341 341 340 338 335 334 334 335 336 336 336 335 336 337 338 339 339 338 337 337 338 337 337 338 337 338 337 337 336 335 333 331 326 326 326 327 328 329 329 331 330 333 339 339 338 338 335 334 334 334 334 335 334
340 342 342 340 340 340 344 347 346 348 348 348 348 347 346 346 345 345 344 344 344 343 343 342 341 341 340 339 339 338 338 340 339 338 337 336 334 334 334 334 337 336 335 335 336 337 337 338 338 336 337 336 336 337 336 337 337 336 336 335 334 333 330 328 324 325 325 326 327 328 328 330 330 337 338 337 338 336 334 334 334 333 333 332 332
340 341 341 342 342 344 340 342 344 347 348 348 347 347 346 346 345 345 344 344 343 343 342 342 341 341 340 339 338 338 337 337 337 336 336 335 334 333 334 334 333 334 334 334 335 336 337 337 337 337 336 336 336 336 336 336 336 335 335 334 333 331 327 325 325 322 323 324 327 327 328 330 331 336 337 337 337 334 332 331 332 331 330 330 330
339 341 342 342 342 343 341 339 342 343 345 347 347 347 346 346 346 345 345 344 343 343 342 342 341 341 340 338 339 338 337 336 336 335 335 335 335 334 334 334 333 333 334 334 334 335 337 337 337 338 336 336 336 336 335 335 335 334 333 332 331 328 325 320 321 320 322 323 324 327 327 329 334 335 335 336 334 332 331 330 330 331 330 330 329
341 341 342 342 343 343 343 341 338 338 341 343 344 345 346 346 346 345 345 344 343 343 342 342 341 340 339 338 338 337 336 336 335 336 335 335 334 334 334 334 333 333 334 334 335 335 337 337 337 336 336 336 335 335 334 334 334 333 332 331 329 327 325 322 320 320 321 323 324 325 327 329 333 333 333 333 332 331 330 329 328 328 328 327 326
341 341 341 342 342 343 343 342 338 334 335 337 339 340 343 345 345 345 344 344 344 342 342 341 341 340 339 338 338 337 337 336 335 335 335 335 334 333 333 333 333 333 333 333 335 336 336 336 335 335 335 335 335 335 334 333 332 331 330 329 328 326 324 322 321 321 322 323 324 325 326 326 329 330 330 330 330 329 329 328 327 326 325 325 325
340 341 340 341 342 342 342 342 340 337 338 335 333 338 340 343 343 343 343 343 343 343 342 341 341 340 340 339 339 338 337 335 336 336 335 334 334 335 335 334 334 333 334 334 334 335 335 334 334 334 335 334 334 334 333 332 331 329 328 327 326 325 324 323 321 321 323 325 324 326 326 329 330 331 331 330 330 329 327 325 326 326 325 324 324
339 340 341 341 341 341 342 341 340 339 337 335 335 336 334 338 340 340 341 341 342 341 341 339 338 339 339 337 336 334 333 334 334 336 335 334 333 332 335 335 333 335 334 334 334 334 334 333 333 333 334 333 333 332 331 330 329 328 326 324 322 321 321 321 320 321 322 323 324 326 326 330 330 330 330 329 328 326 326 326 325 325 324 324 324
337 338 339 340 341 341 341 340 339 340 338 335 334 335 333 332 336 337 338 339 339 339 337 335 333 333 332 332 329 328 327 326 326 328 330 334 332 329 332 333 335 335 333 333 333 333 333 332 332 333 333 332 332 331 329 328 327 325 324 322 320 319 319 318 320 321 322 324 325 327 329 329 331 331 329 329 328 327 327 326 325 325 324 323 322
336 337 338 339 340 340 340 339 339 340 338 336 334 334 334 330 332 332 333 336 336 335 334 329 325 325 325 322 324 325 323 323 324 323 322 322 324 326 330 334 335 333 332 332 332 332 332 332 331 331 330 328 325 325 326 326 325 323 321 319 317 317 317 319 320 321 324 325 325 327 331 330 329 330 329 328 328 327 325 324 323 322 321 321 321
333 334 336 338 339 339 339 339 338 339 338 337 337 337 335 332 334 334 333 333 330 328 328 329 328 326 322 324 324 323 322 321 322 326 321 321 323 324 328 333 333 332 332 332 331 331 331 331 329 328 326 323 318 313 314 318 320 319 317 316 315 314 316 320 322 324 324 324 324 329 331 331 331 331 329 327 326 326 324 323 323 322 321 321 321
331 333 334 336 337 338 339 338 337 339 338 338 338 337 335 334 333 334 333 329 330 327 327 327 326 325 324 324 323 322 321 320 321 322 321 321 323 323 327 330 331 330 331 332 331 330 330 329 327 324 321 316 310 309 308 309 310 314 313 313 312 314 317 318 319 321 322 323 325 328 329 330 330 329 327 326 325 324 322 322 322 321 320 321 320
332 333 334 336 337 337 338 339 338 339 338 338 337 336 336 336 334 333 334 332 330 328 327 326 325 325 324 323 322 321 320 320 323 322 322 321 323 322 324 326 326 326 327 328 329 329 327 324 321 318 314 310 308 307 307 306 307 308 310 310 311 312 314 315 316 318 323 324 326 327 328 328 328 328 327 326 325 323 322 322 321 321 320 320 319
333 334 334 334 335 336 337 337 338 339 338 338 336 335 336 337 336 335 335 334 333 330 327 325 324 324 323 323 321 320 319 319 319 320 320 321 320 322 322 321 317 315 317 313 313 312 310 308 308 308 307 307 307 306 307 307 306 306 307 308 310 312 312 313 314 316 317 322 325 325 326 328 327 326 325 325 324 322 322 321 320 319 319 319 319
333 333 333 334 335 335 336 337 337 338 338 338 337 335 335 336 336 336 336 335 334 332 328 326 324 323 323 322 320 319 318 318 318 319 319 320 320 320 319 317 314 311 311 308 307 306 305 305 306 305 304 305 305 304 304 305 306 305 305 306 308 310 310 310 311 311 311 313 321 323 325 326 326 326 325 324 323 322 320 321 320 320 320 319 318
332 333 335 335 335 335 336 336 336 337 337 338 338 336 335 337 337 337 336 335 335 333 331 328 326 324 322 321 321 319 318 318 317 318 319 319 320 319 318 315 312 308 308 307 305 305 304 304 304 303 303 304 304 303 303 303 304 305 304 305 306 307 307 307 307 307 307 310 312 321 325 326 325 325 323 322 322 321 320 319 320 320 319 319 318
332 332 334 335 334 335 335 335 335 336 337 338 338 337 335 337 337 335 336 333 334 334 332 330 329 326 323 321 320 320 319 317 317 318 318 318 319 319 317 314 311 307 306 306 304 303 303 303 303 303 303 303 303 303 303 303 303 304 305 304 304 303 303 304 304 303 304 307 310 318 321 322 324 324 324 323 323 321 321 320 320 320 319 319 317
330 332 334 335 335 335 335 334 335 335 336 337 337 337 337 337 336 336 336 331 335 335 334 332 329 327 325 322 320 319 318 318 317 317 317 318 317 317 315 313 310 306 305 304 304 303 302 303 303 302 302 302 302 302 302 301 301 302 303 303 303 303 302 301 301 301 301 303 306 312 320 322 324 324 322 322 322 321 320 321 322 321 320 319 317
330 332 333 335 336 336 335 334 335 335 336 337 336 337 336 336 337 336 336 333 335 336 335 332 331 329 326 324 321 320 319 318 317 316 317 318 317 316 314 312 310 306 304 303 303 303 303 302 302 302 302 301 301 301 301 301 300 300 301 301 300 299 299 299 299 299 299 299 301 304 313 320 323 323 322 322 322 321 320 321 319 319 318 318 317
328 329 331 333 335 335 335 335 335 333 336 335 336 336 336 336 336 337 336 334 335 336 335 334 332 330 327 325 323 321 320 318 318 317 316 316 316 315 314 312 310 306 304 303 302 303 302 303 302 302 302 301 300 300 300 300 299 298 299 299 298 298 297 297 298 297 297 297 297 298 302 312 320 322 322 321 319 319 319 319 319 319 319 318 317
325 327 330 332 333 334 335 335 335 334 334 335 335 336 335 336 336 337 336 335 335 335 335 334 331 331 329 326 324 322 321 321 320 319 318 317 317 316 314 312 310 307 304 302 301 301 302 301 301 301 301 300 299 299 299 299 297 297 297 298 297 297 296 296 296 295 296 296 294 295 297 301 312 319 321 321 319 319 320 319 319 318 318 318 318
323 325 327 329 331 332 334 335 336 335 334 335 336 336 336 336 336 336 336 335 335 335 335 335 333 333 331 328 325 323 322 322 321 320 318 318 317 316 315 314 312 309 305 303 301 301 301 301 300 300 299 299 299 298 299 299 298 296 295 295 295 295 295 295 294 294 294 294 293 292 294 296 297 308 314 319 320 319 319 319 319 318 318 318 318
320 319 318 323 328 331 332 334 335 335 334 336 336 336 336 336 335 337 335 336 336 335 334 336 334 333 332 329 327 324 322 322 321 320 319 318 317 317 316 315 313 311 306 304 302 301 301 302 300 300 301 301 299 298 298 297 295 293 293 293 293 292 293 293 293 292 293 292 291 291 292 293 293 295 298 310 317 319 319 319 319 319 318 318 317
315 314 317 320 321 326 329 331 331 333 332 334 334 335 335 335 335 336 336 335 335 335 335 335 335 334 333 331 329 325 323 322 322 321 319 318 316 316 316 315 314 312 307 304 302 302 302 302 301 301 301 301 300 299 299 296 294 292 291 292 291 291 291 291 291 292 292 292 292 292 292 292 293 292 293 293 301 308 317 319 319 318 317 317 316
315 316 315 316 319 321 324 327 330 331 332 332 333 334 334 335 334 330 336 335 334 335 335 335 335 335 333 332 330 327 324 323 322 322 320 318 316 315 315 315 314 313 307 304 302 300 301 302 302 302 301 299 298 296 296 294 293 291 290 290 291 292 291 291 292 292 291 291 291 291 291 291 292 292 294 290 292 298 310 316 317 316 316 317 316
315 315 315 314 316 318 320 323 326 328 330 332 332 332 332 332 334 333 333 333 334 334 334 334 335 335 334 333 331 328 325 324 323 322 320 319 317 315 315 315 314 313 308 306 303 301 301 301 300 301 302 299 298 296 294 293 292 291 290 290 291 291 291 291 291 290 291 292 291 290 290 290 292 291 286 287 289 290 301 310 315 317 316 315 316
313 314 315 315 316 317 318 320 323 325 328 330 331 331 331 330 330 332 331 333 332 333 334 334 334 334 335 334 332 330 327 325 324 322 321 320 319 317 315 314 314 314 309 306 304 302 301 301 300 300 301 300 299 297 294 291 292 291 290 290 290 290 290 290 290 292 290 291 290 289 287 287 287 286 285 286 286 288 288 297 306 309 310 315 315
311 312 314 315 315 315 316 317 319 321 324 328 329 329 329 327 327 328 328 331 332 332 332 332 332 333 333 333 332 332 328 328 325 323 321 320 319 318 315 314 313 313 310 306 304 301 300 300 300 299 300 301 300 297 294 292 292 291 290 289 289 289 289 290 289 289 289 289 292 291 288 286 286 285 285 285 285 286 287 287 288 291 301 312 315
308 309 311 313 314 314 315 316 317 320 321 324 326 326 326 325 324 322 323 326 329 328 329 331 331 331 330 332 332 331 329 327 327 325 322 321 319 318 316 314 313 314 311 307 304 302 300 299 299 298 297 296 296 294 293 292 291 290 290 289 288 289 290 290 288 288 288 288 287 288 287 287 285 286 286 285 285 286 287 286 287 287 291 303 310
304 307 309 311 313 315 314 315 317 317 319 321 322 324 323 323 323 324 324 326 326 327 327 328 330 331 331 330 331 330 329 328 327 327 324 319 320 320 317 315 314 313 312 309 307 304 303 301 299 298 297 296 294 293 293 293 292 292 291 290 289 289 290 289 287 287 287 286 286 287 287 286 285 286 285 285 285 285 286 285 285 285 286 287 296
301 304 307 310 312 312 314 315 314 315 318 320 322 323 324 325 324 324 325 325 324 324 325 326 327 327 328 330 330 330 332 331 327 328 326 323 321 320 319 316 314 313 313 312 308 303 301 301 298 297 298 297 294 293 292 295 293 294 290 289 291 289 289 288 287 287 286 285 285 285 286 285 285 286 285 285 285 285 284 284 284 284 284 285 286
299 302 305 306 309 311 314 314 314 315 317 318 319 320 322 322 322 319 323 319 317 322 323 322 322 324 325 326 327 327 328 328 328 326 328 326 324 322 320 318 316 314 312 310 308 304 302 300 298 298 295 296 294 294 293 298 295 291 292 291 289 288 291 290 287 286 286 286 286 286 287 285 285 285 285 285 285 285 284 282 283 283 283 283 284
298 298 302 306 308 310 312 312 313 313 315 316 315 315 313 313 310 308 313 316 315 311 317 316 318 320 322 322 323 325 326 327 327 327 326 323 323 322 321 320 317 314 313 311 308 305 303 301 299 299 297 293 292 292 294 296 294 293 291 291 287 288 286 291 289 286 285 286 286 286 286 285 284 283 284 284 285 284 283 282 281 281 282 282 283
297 299 301 305 309 309 310 311 311 311 311 310 312 309 308 305 304 306 307 308 308 310 312 316 316 316 317 319 322 320 321 323 325 326 325 327 325 323 322 321 319 316 314 312 309 307 304 302 300 299 297 296 292 292 292 294 294 299 295 287 286 285 288 286 285 287 285 286 286 285 285 285 283 283 284 284 283 283 283 282 281 280 281 281 281
295 297 298 303 303 305 306 307 307 308 310 309 310 310 312 312 309 312 310 306 310 307 312 315 315 315 318 319 316 319 320 321 322 323 324 324 327 325 323 321 319 317 315 314 312 309 305 303 301 300 298 299 297 293 291 293 294 294 294 296 294 295 289 286 289 290 284 285 285 285 285 284 282 283 284 284 283 283 283 283 281 281 282 282 281
294 294 296 299 301 302 303 305 307 305 306 306 308 309 309 310 311 313 315 313 313 311 306 306 313 314 314 316 317 316 318 319 320 321 322 323 323 323 323 323 321 319 315 315 313 310 307 305 303 301 300 300 298 294 292 291 292 292 293 293 291 289 290 286 287 285 286 285 283 284 284 283 282 282 283 284 284 283 283 283 283 283 283 283 282
292 293 296 298 299 300 300 302 301 303 303 305 307 309 311 310 309 309 310 311 311 311 306 306 302 303 310 313 314 315 315 316 318 319 321 321 321 324 323 321 320 319 315 315 314 312 310 307 304 303 302 300 299 298 296 294 291 292 292 291 290 290 290 289 289 293 291 286 285 283 283 284 283 283 283 284 284 283 283 283 283 282 281 282 283
293 295 296 297 297 297 298 298 300 300 301 303 306 306 309 310 310 309 308 308 307 304 297 298 303 300 304 305 310 313 313 313 314 316 317 318 317 319 321 322 321 320 315 317 316 314 311 308 304 302 302 301 300 300 300 295 293 294 292 291 291 290 289 288 287 289 290 291 290 283 283 283 284 285 284 285 286 286 285 284 284 283 283 282 281
290 293 294 295 295 295 297 298 298 299 300 301 304 305 306 305 307 306 307 308 302 298 297 302 301 298 302 302 306 309 310 311 311 312 313 314 315 315 316 318 319 318 313 315 315 314 312 310 307 304 303 302 301 300 300 298 295 296 295 294 291 289 288 286 285 285 287 290 294 286 284 282 281 283 285 285 285 285 284 284 283 283 282 282 282
290 292 293 293 293 295 295 297 297 296 297 300 301 303 303 304 307 306 306 306 303 302 300 299 298 299 302 303 303 305 306 309 309 309 310 311 312 312 314 315 316 314 313 314 315 315 313 311 309 306 304 303 302 300 299 299 297 296 296 296 294 292 291 289 288 287 288 287 286 288 285 285 285 285 285 286 285 285 284 283 283 283 283 282 282
Wind_Speed
5 5 3 5 9 10 12 12 13 12 12 13 13 13 13 13 13 13 12 12 13 14 14 14 14 14 14 13 13 13 12 12 14 14 14 16 18 18 17 16 14 15 17 17 17 17 18 17 19 19 19 18 18 18 17 18 18 19 19 18 18 19 19 18 18 17 16 18 19 19 19 19 19 19 19 20 19 18 15 14 13 12 11 15 21
8 5 4 3 11 11 12 13 13 13 13 13 13 13 13 12 12 12 12 12 13 14 14 13 13 13 13 13 13 12 13 13 13 14 14 15 17 17 16 14 14 18 18 18 17 17 17 19 19 19 20 19 19 18 18 19 18 18 18 18 19 19 18 18 18 16 16 15 14 15 18 19 18 19 19 18 18 16 13 14 16 10 9 19 20
7 5 3 3 7 9 10 13 13 13 13 13 13 13 12 12 12 12 12 13 13 13 15 14 13 13 13 13 12 12 11 12 14 16 17 16 16 16 15 13 15 17 18 18 17 17 17 18 19 18 17 18 19 19 19 18 17 18 18 19 18 17 17 17 16 15 15 15 14 14 14 17 18 18 19 19 21 19 16 17 17 16 13 21 19
8 5 4 3 6 7 10 13 12 12 13 13 13 13 12 12 12 12 13 13 13 12 13 14 12 12 13 12 13 15 17 17 15 16 17 16 16 15 13 13 17 18 16 16 17 17 18 19 19 18 18 17 18 18 18 17 18 18 18 17 17 16 16 16 15 15 14 13 12 9 6 6 10 19 19 20 20 21 17 20 20 21 22 21 23
7 5 3 3 3 4 12 12 12 12 13 13 13 13 12 12 12 12 13 13 13 12 13 14 13 12 13 13 13 13 15 16 15 14 17 17 16 15 15 16 17 16 16 17 16 17 17 18 19 19 18 18 18 17 17 17 18 18 17 16 16 16 16 16 15 14 13 13 12 8 6 5 7 17 19 20 20 19 19 21 22 22 22 23 23
6 5 3 2 3 4 10 12 12 13 13 13 13 13 12 12 13 12 12 13 13 12 13 13 13 12 12 13 13 13 14 14 15 16 18 18 17 16 14 15 17 16 15 15 15 16 17 18 17 18 18 17 16 16 17 17 17 17 16 16 16 16 16 16 15 15 14 13 10 6 6 7 7 10 20 21 21 20 21 22 22 21 22 23 23
7 5 4 3 2 5 10 11 13 13 13 14 13 13 12 12 12 12 12 12 13 13 12 12 12 12 11 12 14 13 14 14 14 16 16 17 16 16 16 15 15 15 15 15 16 16 17 17 17 17 17 17 17 16 16 17 16 16 16 16 17 17 17 16 15 15 13 8 6 6 7 7 6 6 21 20 21 22 22 22 22 23 24 22 22
6 4 4 3 3 7 9 10 12 13 13 13 13 13 13 13 12 12 12 12 12 12 12 12 11 10 11 13 12 14 14 13 16 17 17 17 16 15 14 14 17 15 15 15 16 17 17 17 16 16 17 17 16 16 16 16 17 16 16 16 17 16 16 15 14 13 13 7 6 6 5 5 6 7 19 21 22 22 22 23 23 23 24 22 18
7 6 4 3 3 8 9 9 12 13 13 13 13 13 13 13 12 12 12 12 12 12 12 11 11 10 11 13 12 13 15 15 16 17 18 16 15 15 15 15 14 15 15 15 15 15 15 15 15 16 17 17 16 16 16 16 17 16 16 16 16 16 15 15 14 12 7 6 6 6 6 6 7 8 19 24 23 23 22 19 19 23 23 20 22
6 5 4 3 3 8 8 8 12 13 13 13 13 13 13 13 12 12 12 11 11 11 11 11 11 11 13 13 14 14 14 15 15 16 16 15 15 14 13 14 14 13 14 14 14 15 15 15 15 16 17 16 16 15 16 15 16 16 16 17 16 16 15 14 13 9 7 7 7 7 8 10 7 9 18 23 24 24 22 20 17 17 16 21 24
7 5 4 4 4 8 9 11 10 11 13 12 13 13 12 12 12 12 12 12 12 11 11 11 11 11 11 12 13 12 13 15 15 15 16 15 14 13 13 14 15 14 13 14 14 14 14 15 14 15 15 15 15 15 15 15 16 15 16 15 15 15 14 13 9 7 7 7 7 6 10 14 8 8 20 23 24 24 21 21 20 19 21 22 22
7 5 4 3 6 8 9 9 10 12 12 12 13 13 12 12 12 12 12 11 12 11 11 11 11 11 10 10 13 13 13 14 14 15 15 14 14 13 13 15 14 13 13 13 14 13 13 14 14 15 15 15 15 15 15 16 16 16 15 15 15 14 13 12 7 7 6 7 6 6 6 8 8 12 22 23 23 23 22 21 20 20 21 21 23
7 6 4 4 3 7 8 9 9 10 12 12 13 13 12 12 12 12 12 11 11 11 11 11 11 11 10 10 11 11 12 14 12 12 13 13 14 13 12 13 15 13 13 13 12 13 13 14 15 15 14 14 14 14 15 16 16 16 15 14 14 14 12 10 6 6 6 6 6 7 6 6 7 19 21 22 23 23 22 21 20 20 20 20 20
7 6 5 4 4 7 7 8 9 10 10 10 12 11 12 12 12 12 11 11 11 11 11 11 11 11 11 11 11 11 10 10 12 12 12 13 13 12 12 12 12 14 13 12 12 12 13 14 14 15 15 14 14 15 16 16 15 15 14 14 14 13 10 7 6 5 6 6 5 5 5 7 8 20 21 22 23 22 21 20 19 20 21 20 19
8 7 5 4 4 4 7 8 8 9 9 10 10 10 11 12 11 11 11 11 10 11 11 11 11 11 11 11 11 11 11 11 11 12 13 13 13 12 12 13 13 13 13 12 12 13 13 13 14 15 15 14 15 15 15 15 15 15 14 14 13 12 9 5 5 5 5 5 5 7 6 6 15 19 20 22 21 21 21 20 19 22 23 21 20
6 6 5 5 4 3 4 6 8 8 8 9 9 9 10 10 10 11 11 11 11 10 10 11 11 11 11 11 11 11 11 11 11 12 12 12 13 12 11 13 13 12 12 13 12 12 13 13 14 14 14 14 15 15 15 15 15 14 14 13 12 11 9 6 5 5 5 5 5 4 5 8 19 19 20 21 21 21 21 21 20 20 21 21 19
5 5 6 5 4 3 4 4 4 7 7 8 9 9 9 9 9 10 10 10 10 10 10 10 11 11 11 11 11 10 10 10 10 11 11 12 13 11 11 13 13 13 12 12 12 13 13 14 14 14 14 14 14 15 15 14 14 14 14 13 12 10 10 8 6 5 6 5 5 6 6 6 17 20 21 21 22 22 23 21 21 20 20 19 19
5 5 6 5 4 4 4 3 4 4 4 5 8 9 8 9 9 9 9 9 10 9 9 9 9 9 9 8 9 9 10 9 9 9 10 11 10 8 10 12 12 12 12 12 12 13 13 13 14 14 14 14 14 14 15 14 14 14 14 13 12 10 9 9 6 5 6 6 6 5 6 13 19 20 21 20 20 21 22 21 19 19 19 19 19
5 5 5 6 5 4 5 4 4 3 4 3 3 6 8 8 9 9 9 9 9 9 9 8 7 7 8 9 9 9 8 8 7 7 7 7 7 8 8 9 12 12 12 12 12 13 13 13 13 14 14 14 14 14 14 14 14 14 13 12 10 11 11 7 5 6 6 6 5 5 7 17 19 20 21 20 20 20 20 20 20 18 18 19 19
5 5 6 5 5 5 4 4 5 4 4 4 4 4 6 8 8 9 9 9 8 9 9 8 8 8 8 9 9 8 8 6 8 5 7 6 7 6 6 5 12 12 11 12 12 13 13 13 13 14 14 14 14 13 13 13 13 13 12 11 11 11 7 5 5 6 6 6 5 5 10 16 20 21 20 20 19 19 19 20 20 19 19 18 17
4 5 5 5 5 6 5 5 6 5 4 4 3 4 5 7 7 9 9 9 8 9 9 9 9 8 8 8 8 6 5 4 5 4 6 3 6 8 6 5 12 12 10 11 11 12 12 12 13 14 14 14 12 12 11 12 12 12 11 10 11 7 5 6 5 5 5 5 4 4 11 16 16 16 17 18 18 19 19 19 19 19 17 16 16
6 6 6 5 6 6 6 6 6 5 5 4 4 4 4 5 5 5 5 7 7 7 6 5 6 5 8 6 5 5 5 4 5 5 3 4 4 7 7 6 11 10 10 11 11 11 12 12 13 14 14 13 11 7 7 9 11 11 9 11 8 6 5 5 5 5 5 4 4 7 11 18 21 22 19 18 18 17 17 18 18 17 16 17 16
7 6 6 7 5 6 6 7 6 7 6 5 4 5 5 4 5 5 5 6 6 5 5 5 4 5 5 5 5 5 5 4 4 4 4 6 5 7 7 9 10 8 8 10 10 12 12 12 13 14 13 11 7 6 5 5 5 8 9 7 6 5 6 6 5 5 5 4 4 9 13 19 20 20 18 16 15 16 16 17 16 16 16 16 16
8 8 7 5 6 6 7 7 8 7 7 5 5 5 4 4 4 4 5 5 5 5 5 5 5 5 5 5 4 5 5 5 5 7 6 5 5 8 9 10 10 8 9 6 9 11 13 11 12 12 8 5 5 5 6 5 5 4 5 5 5 6 6 5 4 4 4 4 6 10 13 16 15 15 16 17 15 15 15 15 16 17 16 15 16
6 4 5 7 7 7 6 7 7 7 7 6 5 5 6 4 5 5 5 5 5 5 5 5 5 5 5 5 5 4 5 5 5 5 4 5 5 5 6 5 5 5 8 6 6 6 6 5 5 6 5 5 6 4 4 6 5 5 5 5 6 5 4 4 4 4 4 3 6 10 9 13 16 16 15 15 14 15 15 15 15 14 14 14 14
5 7 8 7 8 7 7 6 7 7 7 6 6 7 6 6 5 6 5 5 6 5 5 5 4 5 5 5 5 5 5 5 5 5 4 5 5 5 5 5 5 5 5 6 5 5 4 5 5 5 4 4 5 4 4 4 5 5 5 5 5 5 4 4 4 4 3 2 3 11 12 15 17 15 16 14 13 13 13 14 13 13 13 14 14
8 8 7 7 7 8 8 7 7 7 8 6 5 6 7 6 5 6 6 6 5 6 6 5 5 4 5 5 6 5 5 5 5 5 5 5 5 5 5 5 6 5 5 6 5 4 5 5 5 5 4 5 5 4 4 4 3 6 6 6 5 5 4 4 4 4 3 2 2 4 14 16 16 16 13 10 12 12 12 12 13 14 13 13 14
6 8 8 7 7 10 9 9 8 8 7 7 6 6 7 6 6 5 6 7 6 6 6 6 6 6 5 5 5 6 6 6 5 5 5 4 5 4 4 5 5 5 4 5 6 5 5 5 5 4 5 4 5 4 4 4 4 3 5 6 6 5 5 4 4 4 4 4 2 6 10 10 12 18 15 14 13 13 12 11 14 14 14 14 12
8 9 8 8 9 9 9 10 9 9 7 7 7 6 7 7 6 6 6 7 6 6 6 6 6 6 6 6 5 6 5 5 6 5 4 5 4 4 4 5 5 5 5 5 5 6 5 5 5 5 5 5 4 4 4 4 3 3 4 5 5 6 5 4 4 5 4 4 4 2 9 9 9 12 13 13 13 12 11 13 15 14 13 13 12
11 9 8 9 8 8 11 12 10 9 8 7 7 7 7 8 7 8 7 6 7 6 7 6 6 6 6 7 6 6 7 7 6 5 6 6 5 4 4 4 5 5 5 6 5 6 6 5 5 5 6 5 5 4 4 5 4 3 3 4 4 4 4 5 4 4 3 3 4 5 6 7 12 14 15 14 13 12 12 13 11 11 11 11 12
9 11 10 9 7 8 8 10 11 9 8 9 8 8 7 8 7 6 7 7 7 6 6 7 6 6 7 7 7 6 6 6 6 6 5 5 5 5 5 4 5 5 5 5 5 5 5 6 6 6 6 5 5 4 5 5 4 3 2 4 4 3 4 4 5 4 3 3 3 3 4 7 6 12 13 13 12 12 10 12 12 12 12 12 12
12 15 12 7 7 10 9 8 9 10 9 9 8 8 8 8 7 6 7 6 8 8 6 7 8 7 7 7 7 6 6 6 7 6 7 6 6 6 5 6 6 5 5 5 6 5 5 5 4 4 4 5 5 4 3 5 5 4 3 3 3 4 3 2 4 4 3 3 3 3 3 3 4 8 9 11 13 13 12 12 12 13 12 13 12
11 10 8 8 11 9 9 9 8 9 11 11 9 9 8 8 8 7 6 7 6 7 8 6 7 7 8 8 8 8 7 7 7 7 7 7 6 6 6 6 5 5 5 5 6 5 5 6 5 4 5 5 5 4 3 2 5 4 4 3 3 3 2 2 3 3 3 3 3 3 3 3 3 6 4 9 9 13 13 13 14 13 13 14 13
8 6 5 11 10 7 7 6 8 10 11 10 8 8 9 8 8 7 6 7 7 7 7 7 6 7 8 10 9 9 9 7 7 8 7 6 6 7 7 6 5 6 6 6 6 5 6 6 7 6 5 6 5 5 5 5 3 3 3 2 2 2 2 2 2 4 3 3 2 2 3 3 3 3 3 3 7 12 14 14 14 14 14 13 12
7 6 12 11 7 10 7 8 9 9 8 10 12 8 5 7 8 8 7 7 7 9 7 6 6 6 7 9 10 10 10 9 8 8 9 9 7 7 8 7 6 6 6 7 7 6 6 7 7 8 6 5 4 5 5 6 5 4 3 3 2 2 2 2 1 2 3 3 3 3 2 2 3 3 3 2 6 5 6 14 15 16 12 12 13
12 11 8 6 10 9 9 10 10 11 11 10 8 9 8 7 5 6 7 8 7 7 9 9 7 6 6 7 10 10 10 10 10 9 7 8 9 9 8 7 9 8 6 5 5 6 6 6 6 7 9 6 5 3 2 5 5 5 3 3 2 2 1 1 1 1 1 2 3 3 2 3 3 3 3 3 3 3 8 3 12 12 13 14 12
10 9 11 8 9 11 11 12 13 14 13 12 10 8 6 7 8 8 5 5 8 8 5 5 8 10 6 5 7 9 10 11 10 9 10 11 10 10 8 7 5 7 7 6 6 5 5 5 4 3 4 8 8 6 3 2 4 5 5 4 3 2 2 2 3 2 1 2 2 3 3 3 3 3 3 3 3 3 5 8 4 6 11 11 14
9 10 10 11 12 9 10 12 11 10 10 11 11 11 9 6 5 6 8 8 5 5 7 8 7 7 9 11 9 8 7 8 8 9 8 7 6 7 9 13 12 11 10 10 10 8 7 8 8 4 3 7 7 9 7 3 2 2 4 4 3 4 3 3 3 3 3 1 1 2 2 1 1 1 2 2 2 2 2 5 5 7 4 12 14
9 9 8 9 7 8 8 10 10 10 10 10 9 9 8 6 4 5 6 8 8 7 5 5 5 6 8 7 7 10 13 15 13 11 7 6 8 8 7 8 8 8 7 8 8 8 7 8 10 9 5 5 7 7 8 6 4 3 3 4 3 3 2 1 2 3 2 2 1 1 1 1 1 1 1 1 2 2 2 2 2 3 4 6 6
7 6 8 7 9 8 8 8 10 10 7 7 7 7 7 7 7 4 6 7 7 6 6 6 5 5 4 6 10 8 4 6 11 13 14 11 7 4 3 4 7 8 8 7 8 9 11 10 8 10 8 5 4 5 6 7 5 4 3 3 3 3 2 1 1 1 2 2 2 1 2 1 1 1 1 1 2 2 2 2 2 2 2 3 6
7 8 9 10 11 12 9 12 10 8 8 9 8 9 10 8 7 9 10 7 7 6 5 5 6 6 6 5 5 6 8 7 6 6 8 10 10 9 8 6 7 8 10 12 12 11 9 8 6 5 10 8 4 5 7 8 9 4 3 2 2 2 1 2 3 3 3 3 2 3 1 1 2 2 0 0 1 2 2 3 1 1 1 2 4
9 7 10 12 8 7 10 10 6 9 10 11 10 9 10 10 10 10 9 8 7 7 8 7 8 6 6 8 8 6 10 13 13 13 10 8 7 8 10 11 10 10 10 9 10 9 9 9 9 7 5 9 7 8 8 9 4 9 7 4 2 2 2 2 3 6 4 2 3 4 3 3 3 3 1 1 1 1 2 1 1 1 1 2 3
4 7 8 6 7 9 10 8 7 9 10 9 9 10 9 8 8 4 6 4 3 4 6 4 4 6 6 7 7 6 6 6 6 7 10 13 15 14 12 12 13 11 8 5 6 7 9 11 12 11 9 4 4 7 10 9 5 5 2 4 1 2 4 3 4 7 4 3 3 5 4 3 3 2 2 2 2 2 0 0 1 2 1 2 3
5 4 6 8 7 8 8 7 7 7 7 8 8 5 4 2 1 1 1 3 4 3 4 3 4 6 7 6 6 7 6 5 6 8 7 3 4 5 5 5 9 12 13 12 11 10 8 9 9 9 10 9 6 9 11 9 6 12 4 4 2 2 2 12 11 5 5 6 6 6 5 5 4 3 2 4 4 2 2 1 2 2 2 2 2
5 6 5 6 6 7 6 6 5 6 5 5 6 5 5 4 3 4 4 3 3 1 4 5 5 5 5 7 9 5 5 5 5 7 7 8 7 7 8 8 7 7 7 9 12 14 15 14 14 12 13 12 11 8 10 11 9 10 9 7 2 1 9 1 4 6 5 6 8 7 6 6 6 4 4 5 3 4 3 3 3 2 3 3 2
4 4 4 4 5 4 4 5 4 5 6 5 6 6 7 7 6 6 5 4 5 5 8 10 9 8 10 7 4 7 7 7 6 5 5 6 8 11 12 10 9 9 9 9 9 8 9 9 13 13 14 11 11 9 9 10 10 13 10 4 5 7 7 4 4 7 1 6 2 6 8 7 4 5 5 6 6 5 4 5 3 5 4 5 4
4 3 3 4 4 3 4 5 5 4 4 5 6 6 6 6 9 10 9 9 10 7 6 5 7 7 5 5 6 5 7 8 7 6 6 6 6 4 5 8 11 12 12 10 10 11 12 13 12 12 13 12 9 11 13 13 8 9 11 8 1 1 3 9 8 3 3 1 5 7 8 7 6 6 8 7 6 5 5 4 5 5 5 3 4
3 2 1 1 3 4 4 4 4 4 4 5 6 7 8 7 7 8 7 8 9 9 7 6 4 4 6 7 6 6 6 6 7 7 7 6 5 5 5 5 6 8 8 9 11 11 11 11 13 15 12 11 13 14 13 10 15 14 13 10 4 1 3 1 4 10 5 4 5 5 5 9 7 9 9 9 9 9 8 7 7 6 5 5 4
2 1 1 1 1 2 3 3 4 4 4 6 7 7 7 8 8 7 7 7 6 5 3 3 5 4 5 5 6 6 5 5 5 6 5 5 5 6 6 7 7 7 9 12 14 15 17 15 13 12 13 13 13 13 10 12 12 12 10 10 6 5 2 2 0 2 7 7 8 8 9 3 5 8 11 10 8 8 8 8 7 8 7 7 6
2 1 1 1 2 3 4 4 4 4 4 5 6 6 6 6 7 7 9 8 5 4 3 4 4 3 5 5 5 5 5 5 5 5 5 4 6 5 6 7 7 6 6 7 8 8 8 9 13 15 16 16 13 13 14 11 12 11 12 12 12 6 2 3 5 6 5 6 10 7 8 10 11 14 10 10 12 9 8 7 8 8 8 7 7
3 3 3 2 2 3 4 4 3 3 3 4 5 6 6 6 8 8 9 8 6 6 5 5 4 3 6 6 5 6 4 5 4 5 6 6 6 6 7 7 7 6 5 6 9 10 11 13 13 13 13 15 13 13 12 11 10 11 11 11 14 14 15 14 14 12 11 8 6 8 6 9 13 8 9 13 10 10 8 7 9 10 8 8 7
Wind_Direction
208 176 179 165 170 162 141 133 132 129 122 116 108 101 96 94 92 92 92 89 85 83 84 89 90 89 91 92 94 87 81 85 79 76 81 81 78 75 76 77 80 81 78 75 74 74 75 78 77 75 73 72 72 72 73 76 75 72 69 67 65 59 56 54 60 60 66 73 72 73 80 78 77 76 76 77 77 75 71 71 74 74 75 74 75
170 189 168 176 173 156 138 138 137 134 126 117 111 106 101 98 97 94 92 91 89 88 86 89 92 94 96 95 93 86 79 83 83 81 81 80 76 76 76 77 83 82 75 71 70 73 78 77 75 75 77 77 76 76 77 77 77 71 71 69 63 59 56 54 49 44 46 50 64 80 86 83 80 79 79 80 80 75 72 75 74 72 72 77 77
143 157 171 184 172 144 144 139 136 133 125 119 115 109 107 106 103 100 97 95 93 92 93 92 94 99 99 94 85 92 104 90 82 86 86 85 81 79 77 83 85 81 80 79 78 78 80 78 76 73 77 81 81 82 81 80 76 72 68 64 63 58 55 53 48 42 38 39 42 42 60 75 78 77 77 81 81 76 72 77 79 79 81 78 74
142 159 159 171 173 154 146 137 136 131 127 123 119 116 114 110 104 102 100 100 98 93 95 95 93 93 88 87 92 76 73 78 89 93 89 86 83 82 88 88 82 81 81 79 80 83 85 83 81 81 80 78 80 81 81 79 78 77 68 65 62 62 58 53 50 45 42 41 39 38 55 58 76 83 83 80 80 78 75 78 80 81 82 81 81
143 148 147 156 151 154 135 138 140 138 132 128 123 121 118 113 108 105 107 104 101 98 97 96 95 95 102 106 89 84 83 91 90 87 92 93 92 92 92 91 88 87 86 84 86 87 85 87 90 89 86 82 82 84 82 81 80 80 72 66 64 60 57 56 54 52 47 44 40 35 34 32 69 86 87 85 81 79 78 76 75 75 77 79 79
143 141 137 140 137 138 137 141 144 142 134 130 127 123 121 116 111 110 110 108 106 103 98 98 100 99 95 89 91 95 101 99 101 98 94 95 94 93 92 91 89 88 85 86 88 93 95 92 91 90 90 90 85 81 83 86 86 82 74 68 65 61 57 56 57 56 52 47 44 41 43 59 67 80 85 87 83 80 79 80 79 78 74 72 73
136 135 138 137 147 146 146 146 146 143 137 134 132 126 123 119 114 113 111 109 107 106 103 101 103 103 103 98 89 95 99 97 93 93 94 96 96 99 99 98 98 92 89 87 90 95 96 95 93 90 89 90 88 86 88 88 88 85 77 67 63 60 59 57 55 56 53 48 49 47 57 59 65 79 87 83 82 79 78 79 76 71 68 68 69
129 134 138 144 142 146 148 149 146 143 139 137 133 130 127 122 118 117 114 111 110 107 104 101 104 103 101 100 92 93 86 97 105 100 95 98 100 100 102 98 88 86 87 87 92 95 93 90 89 90 88 90 90 89 90 90 85 79 72 69 66 64 62 58 54 53 60 54 51 52 54 51 63 71 82 79 74 74 72 70 69 70 69 69 65
142 142 135 136 143 144 146 153 146 145 142 138 136 134 130 124 122 119 117 114 111 110 109 108 106 104 98 99 104 100 102 100 95 98 98 98 100 103 105 107 104 94 93 94 95 94 94 97 95 90 90 91 93 90 88 87 83 78 75 73 71 66 61 57 53 48 45 48 51 58 57 64 76 83 80 78 76 70 66 64 62 65 68 69 71
142 131 137 132 149 149 153 156 152 147 143 142 141 138 134 128 125 123 120 118 115 115 114 113 108 104 102 104 102 100 101 97 99 98 101 102 102 104 106 105 98 98 94 98 99 99 97 95 93 92 91 91 94 95 90 86 84 81 77 76 72 69 63 59 55 47 53 49 51 59 72 78 76 79 83 81 78 74 73 72 74 74 75 72 71
145 142 137 144 156 156 161 159 153 147 145 146 147 141 137 132 128 128 126 124 122 120 118 115 111 105 105 110 105 103 102 102 103 102 100 104 105 108 108 102 99 96 102 103 102 101 100 99 96 92 94 95 95 95 92 89 85 82 78 75 72 69 65 60 55 54 53 53 54 51 74 74 69 73 86 83 80 77 75 75 75 77 77 74 71
153 146 146 153 162 163 164 157 157 150 149 153 148 144 140 137 134 133 132 130 127 123 120 117 116 112 108 112 112 110 107 106 104 101 100 104 107 114 117 110 105 103 99 98 99 97 99 99 97 96 96 97 95 91 91 87 87 84 83 76 72 67 61 57 56 57 53 53 57 61 59 67 70 90 85 83 81 79 77 76 75 77 76 71 72
154 160 149 158 156 173 166 162 155 155 153 156 150 148 145 142 140 136 135 134 130 126 122 120 118 117 113 107 108 110 116 117 115 112 109 107 112 118 118 114 109 105 104 105 101 100 102 102 99 98 99 97 96 92 88 87 86 84 79 76 71 65 60 53 55 54 53 53 58 58 65 73 84 84 84 84 81 77 77 78 78 77 77 75 75
158 165 152 159 154 176 168 161 159 157 159 156 154 152 151 147 144 140 137 136 131 128 126 123 121 120 117 114 112 109 108 110 108 110 114 115 116 119 114 112 110 107 106 105 104 103 105 105 101 99 99 99 97 91 86 82 79 77 74 71 67 61 51 50 48 54 55 55 65 66 59 76 79 84 83 81 81 81 79 78 80 80 74 73 76
163 169 156 156 159 171 167 164 164 162 161 157 156 156 155 152 147 145 141 138 136 133 130 127 125 123 122 122 119 117 116 116 117 117 117 118 119 123 123 121 115 113 111 108 107 107 107 108 107 101 102 99 93 86 80 78 78 77 74 68 63 61 54 55 49 51 56 55 58 75 78 85 94 85 84 83 83 83 82 81 78 78 74 75 75
163 159 154 159 163 159 163 169 167 167 161 160 156 159 160 156 152 150 146 143 142 139 134 132 130 129 128 126 125 124 125 124 125 124 124 125 127 128 127 119 119 117 116 117 112 112 112 111 107 108 104 97 92 87 84 80 79 79 75 70 64 62 58 63 56 53 56 57 51 51 74 86 88 87 87 87 88 86 83 81 81 81 79 80 80
160 159 158 164 167 159 156 161 168 172 165 163 161 160 163 159 157 152 148 146 144 141 138 136 134 134 132 130 128 123 122 125 126 126 127 125 128 129 126 125 120 120 117 118 119 117 112 109 113 112 108 97 94 91 88 84 83 81 74 70 66 61 62 65 62 55 58 57 59 70 75 85 90 90 91 90 90 90 86 82 80 81 83 83 84
167 167 168 165 167 163 156 158 159 173 169 168 166 165 166 163 161 151 149 148 147 144 140 140 139 136 130 118 114 118 125 126 124 124 127 126 122 129 137 128 124 123 123 121 120 114 113 115 115 113 103 97 93 92 90 86 79 76 74 69 66 60 64 65 65 57 57 59 68 75 88 95 94 93 92 92 91 90 89 89 90 92 89 85 83
171 176 173 169 176 165 162 158 160 173 168 163 170 174 169 166 159 154 150 149 151 147 145 140 136 132 119 117 116 114 114 116 122 120 110 109 122 130 137 131 132 118 116 120 120 120 120 119 117 108 100 97 94 90 88 85 81 78 76 73 65 68 63 62 60 60 57 55 65 82 102 101 97 94 90 88 91 95 98 97 89 84 87 90 88
177 178 180 184 177 177 164 162 168 171 167 171 174 172 175 165 161 157 152 152 152 150 145 140 134 126 120 115 112 111 108 105 99 95 105 94 97 114 128 132 114 120 126 128 126 125 124 122 119 111 101 96 90 86 85 85 84 80 77 75 72 65 60 62 62 59 67 71 80 88 111 105 102 99 98 97 96 92 91 91 94 96 94 90 90
153 185 182 185 183 184 177 169 173 177 168 173 176 170 175 166 163 158 155 154 153 152 146 136 129 123 116 111 108 107 113 113 109 104 86 83 100 117 132 140 122 125 130 125 128 126 125 122 118 112 102 89 78 70 71 81 81 82 78 74 73 64 58 61 62 63 72 85 88 90 103 109 106 101 92 88 92 99 101 102 101 99 94 92 94
173 179 188 184 185 189 186 180 174 175 173 174 177 176 167 170 163 161 157 155 152 144 141 140 135 128 122 120 117 117 116 119 120 116 104 95 103 119 125 109 105 119 135 135 134 128 124 119 118 107 93 86 74 72 59 59 67 75 74 77 70 67 59 63 63 64 70 73 86 105 117 109 103 98 101 101 100 99 100 99 97 96 98 99 99
187 178 186 187 190 188 191 189 151 182 176 179 180 172 162 171 166 161 157 153 150 145 146 142 141 139 137 127 126 126 122 120 127 129 122 115 118 118 109 104 114 123 133 137 136 130 120 123 110 95 90 80 71 72 62 53 54 61 71 70 74 71 69 62 63 63 68 83 90 117 108 101 99 100 99 98 99 100 102 102 99 101 104 100 100
190 190 186 185 189 192 195 193 190 189 182 185 170 173 151 170 169 164 155 155 152 152 151 151 148 148 142 133 130 129 125 123 125 123 118 117 124 114 104 109 106 103 102 101 112 114 119 107 92 89 80 77 82 73 80 59 44 40 68 76 77 67 66 64 66 64 80 92 103 109 109 102 101 95 99 104 106 107 104 104 108 109 103 104 105
194 179 189 192 193 193 193 198 194 194 190 189 165 163 170 174 173 169 162 161 158 156 158 156 157 153 146 140 136 130 127 128 131 128 127 130 124 121 115 99 97 92 91 85 82 80 80 83 78 74 78 87 84 69 83 89 62 47 46 51 69 66 70 70 66 63 46 68 129 130 115 112 108 108 110 109 105 107 111 106 103 100 107 110 111
178 198 200 193 193 192 196 195 198 199 195 194 189 183 179 187 177 177 168 165 166 161 161 160 159 157 151 143 132 128 131 132 140 141 140 143 138 140 125 116 110 108 104 101 98 103 101 94 92 86 76 80 84 78 59 81 102 83 67 50 51 49 49 45 52 62 36 4 123 120 107 102 105 109 111 113 118 119 116 116 111 110 112 112 114
192 205 196 199 190 191 193 194 202 200 200 197 189 180 187 191 186 180 176 175 170 166 169 167 167 159 153 151 146 147 146 147 148 153 154 153 154 152 135 127 126 123 124 120 116 117 114 104 96 94 90 90 85 80 77 69 77 103 96 82 64 54 38 28 20 24 10 357 331 151 126 121 124 123 119 120 116 112 113 115 114 115 116 116 117
202 206 202 198 189 193 189 192 200 203 200 197 194 191 190 192 191 181 188 180 175 177 173 173 164 164 160 164 158 155 156 155 160 160 163 156 162 157 128 125 127 129 131 127 127 120 111 108 108 101 99 87 98 88 86 74 66 74 100 98 95 79 58 27 8 22 0 346 334 117 109 124 126 126 125 127 127 128 129 126 128 131 129 126 127
214 206 208 204 198 192 187 193 197 202 203 199 200 197 193 196 188 193 193 179 189 184 176 167 171 168 166 164 163 159 160 161 164 166 155 166 158 154 142 136 137 139 136 135 138 135 126 126 123 119 110 107 100 98 94 78 70 67 91 104 108 109 96 64 355 21 12 342 345 92 129 130 128 130 126 129 134 139 136 128 131 129 130 128 127
218 214 208 208 198 187 191 194 196 199 200 201 206 198 196 201 195 191 196 181 197 183 174 176 176 171 172 172 174 170 171 168 165 160 164 167 165 155 146 146 147 150 147 148 158 142 140 132 127 127 124 121 113 114 108 100 82 72 86 103 93 99 113 114 84 62 338 357 352 351 6 131 129 130 137 141 137 140 136 133 138 133 133 131 132
214 224 220 214 203 191 198 194 193 194 198 204 206 204 197 205 202 190 189 191 193 191 183 180 180 180 175 174 175 176 169 168 165 164 167 162 165 167 165 148 148 164 157 148 150 149 144 145 149 145 140 131 124 124 119 110 97 77 67 107 112 99 15 70 112 107 70 15 360 347 353 9 149 143 148 147 141 138 142 141 142 141 140 139 138
211 220 218 208 210 213 205 198 194 189 197 205 205 208 203 203 206 198 195 188 187 197 195 184 185 184 176 176 178 177 177 175 171 169 170 168 173 177 169 167 171 166 164 152 149 145 143 133 121 120 123 122 121 113 116 125 117 111 101 69 113 110 94 88 108 109 108 85 16 344 353 357 44 139 144 144 147 147 150 148 148 146 148 147 146
221 224 217 213 221 214 212 204 200 195 197 205 205 207 205 202 203 209 199 188 192 195 198 194 186 183 181 180 183 179 180 181 179 176 176 176 174 175 179 187 174 167 159 155 143 141 134 129 115 113 113 115 117 111 98 85 126 131 120 109 110 100 92 95 90 94 77 80 40 358 350 3 9 39 101 156 150 153 154 153 155 157 158 153 150
217 211 203 218 216 220 214 212 205 208 203 205 210 204 202 200 200 204 202 196 194 201 201 195 186 185 183 184 185 186 183 187 183 178 174 177 179 183 185 187 178 169 156 156 157 157 151 149 146 141 141 142 143 142 135 120 74 64 72 44 45 58 75 83 76 62 111 76 78 47 2 3 14 29 23 31 152 160 158 163 161 164 162 158 159
216 207 211 216 204 214 207 217 211 214 208 208 209 220 201 195 195 199 199 199 201 201 202 200 192 187 185 187 187 186 187 185 187 188 180 175 181 186 187 190 174 171 169 171 164 165 161 165 161 149 147 146 152 158 151 139 135 105 76 57 40 4 21 61 39 81 76 84 89 76 48 22 10 25 22 11 22 17 173 169 168 166 167 167 165
215 216 216 198 211 210 205 213 209 217 216 211 209 209 216 205 195 199 198 192 204 211 201 198 201 192 188 192 192 186 187 190 184 185 196 190 180 186 194 184 175 171 174 171 164 169 167 160 183 164 152 155 144 134 116 137 131 120 90 82 65 27 6 14 53 52 346 354 71 76 57 34 24 15 17 19 12 10 16 173 177 177 174 170 174
216 210 209 201 213 208 204 208 210 211 214 215 215 214 204 209 200 190 199 201 199 202 212 211 198 193 190 199 194 194 191 190 194 195 191 187 186 186 181 181 169 166 160 170 172 167 167 161 168 223 179 152 157 145 136 145 139 127 117 99 65 36 28 349 343 345 331 90 73 77 69 47 26 29 19 19 4 17 13 29 56 163 182 181 178
218 215 209 204 211 204 204 209 213 210 209 211 210 215 220 212 210 204 195 202 222 221 201 191 207 212 199 194 184 190 194 197 193 192 197 204 208 208 193 177 174 177 178 176 184 175 172 165 163 189 187 151 156 156 151 118 58 78 95 95 73 80 41 354 348 346 335 333 65 85 79 98 66 55 58 39 25 13 24 18 44 65 97 183 184
218 213 209 210 207 203 202 209 209 205 207 206 205 206 206 210 211 206 210 212 210 210 212 212 202 202 201 198 208 204 195 190 186 185 201 205 201 194 192 190 183 182 178 179 174 172 174 181 172 161 148 166 159 153 140 129 111 85 46 27 71 80 101 78 19 348 337 319 315 55 7 37 33 64 71 88 68 55 50 20 25 43 57 59 185
217 205 207 203 206 205 202 207 208 203 197 198 194 199 198 202 206 212 223 217 212 204 200 209 197 200 223 215 183 184 199 214 197 188 185 187 194 203 196 177 177 168 170 182 186 183 181 176 182 162 145 113 95 126 133 127 95 61 42 41 24 16 59 74 27 296 284 280 288 266 167 175 128 359 8 28 76 85 74 49 39 47 46 77 70
219 206 202 206 203 203 191 210 203 188 185 190 193 193 198 202 211 212 220 213 212 211 212 212 212 214 201 204 238 204 176 194 221 217 207 190 185 178 174 184 189 191 187 193 193 184 172 163 153 156 149 136 127 144 145 132 127 77 0 25 351 11 3 353 303 268 259 282 289 278 294 184 161 160 210 309 58 70 108 89 62 42 72 91 78
230 204 209 212 205 196 200 211 173 188 194 193 194 196 200 202 200 209 211 210 206 207 216 210 215 213 212 215 222 237 232 209 196 188 185 191 199 195 188 186 185 196 207 204 185 176 166 162 155 151 182 158 160 168 167 135 171 178 166 209 326 301 229 246 257 256 231 275 288 278 256 217 213 190 172 182 116 93 97 80 103 98 132 114 114
231 201 217 200 197 200 210 200 190 188 197 193 186 200 200 204 204 208 201 210 225 213 218 205 199 205 208 208 202 213 228 232 216 217 196 188 190 192 194 187 184 182 182 186 185 183 181 174 174 169 163 176 138 174 181 202 145 104 48 71 276 240 269 264 233 245 228 219 251 267 268 269 249 220 250 271 222 194 135 71 167 176 169 164 149
246 219 205 207 204 208 208 198 196 194 191 196 198 195 176 154 109 98 126 168 195 207 202 178 197 210 218 212 223 204 212 227 214 202 207 226 211 200 204 211 202 188 183 179 176 182 178 180 185 190 173 161 180 194 193 196 150 137 164 192 188 141 321 238 217 219 187 205 214 238 242 248 248 239 230 240 227 206 228 278 230 214 195 203 193
221 222 204 207 205 209 207 194 188 190 188 182 184 156 123 120 106 70 69 73 41 105 185 223 207 208 215 212 218 201 205 220 216 212 209 198 190 186 187 184 193 210 208 196 187 188 186 186 184 182 187 183 183 187 198 201 199 202 140 123 78 245 227 256 123 238 170 212 226 220 233 243 241 238 236 240 223 224 218 239 240 240 224 215 216
231 222 207 211 204 203 187 185 178 174 183 178 168 159 172 169 163 169 179 185 204 177 201 207 205 206 212 209 205 204 210 215 214 216 221 239 224 198 187 181 187 191 195 199 195 179 188 191 193 192 195 203 190 174 196 213 209 211 215 216 167 188 180 195 117 259 25 231 231 212 229 233 234 242 240 235 227 228 212 229 220 229 219 210 202
252 237 214 206 201 188 180 175 176 170 163 167 165 165 174 185 191 198 203 203 210 222 220 221 208 216 210 206 212 209 211 215 223 217 220 221 228 245 240 207 191 185 183 189 191 190 190 194 190 199 203 194 171 190 195 198 204 233 229 229 148 309 162 135 206 73 282 215 217 227 230 224 221 228 234 231 226 225 226 225 235 236 242 236 214
270 313 258 208 179 177 156 165 156 160 170 162 171 181 186 192 198 210 211 213 212 222 197 213 214 200 206 216 213 218 215 220 226 229 228 228 229 225 206 211 204 189 181 193 199 200 197 197 195 201 198 194 195 200 200 188 188 214 209 217 229 10 251 47 150 180 162 170 236 232 247 225 213 228 224 225 219 212 209 209 215 222 222 225 240
304 248 228 198 151 129 125 126 149 157 176 172 177 193 197 194 201 203 221 228 226 230 198 201 194 197 211 218 219 223 223 227 231 234 230 233 236 238 239 227 215 222 208 201 199 195 193 191 194 199 201 202 206 212 203 200 203 213 173 218 203 215 261 267 300 180 189 203 237 185 217 182 226 243 231 217 220 212 216 218 214 213 209 208 202
332 326 25 82 101 112 123 141 166 178 175 182 185 194 199 190 198 208 218 228 219 238 181 208 210 189 218 218 220 224 223 225 224 228 235 231 232 230 236 245 240 215 199 220 214 209 211 210 200 199 202 203 206 209 212 206 208 212 196 196 192 175 192 260 257 218 256 222 231 200 204 186 209 232 213 216 215 209 211 215 218 218 215 213 204
17 44 43 53 81 109 129 148 184 180 182 191 186 200 200 197 207 209 216 223 217 212 220 237 209 207 222 224 217 224 221 225 213 221 220 224 230 228 230 236 239 234 222 215 211 210 203 198 199 205 213 211 208 209 217 216 211 212 206 201 200 190 193 199 209 207 203 205 233 239 212 201 213 234 217 211 205 206 207 210 219 220 209 212 214